SCP
0 0 0 0 0 0 0 0 0 0 0 0 0 0 0 0 0 0 0 0 0 0 0 0 0 0 0 0 0 0 0 0 0 0 0 0 0 0 0 0 0 0 0
0 0 0 0 0 0 0 0 0 0 0 0 0 0 0 0 0 0 0 0 0 0 0 0 0 0 0 0 0 0 0 0 0 0 0 0 0 0 0 0 0 0 0
0 0 0 0 0 0 0 0 0 0 0 0 0 0 0 0 0 0 0 0 0 0 0 0 0 0 0 0 0 0 0 0 0 0 0 0 0 0 0 0 0 0 0
0 0 0 0 0 0 0 0 0 0 0 0 0 0 0 0 0 0 0 0 0 0 0 0 0 0 0 0 0 0 0 0 0 0 0 0 0 0 0 0 0 0 0
0 0 0 0 0 0 0 0 0 0 0 0 0 0 0 0 0 0 0 0 0 0 0 0 0 0 0 0 0 0 0 0 0 0 0 0 0 0 0 0 0 0 0
0 0 0 0 0 0 0 0 0 0 0 0 0 0 0 0 0 0 0 -0 0 0 0 0 0 0 0 0 0 0 0 0 0 0 0 0 0 0 0 0 0 0 0
0 0 0 0 0 0 0 0 0 0 0 0 0 0 0 0 0 -0 -0 -0 0 0 0 0 0 0 0 0 0 0 0 0 0 0 0 0 0 0 0 0 0 0 0
0 0 0 0 0 0 0 0 0 0 0 -0 -0 0 0 -0 -0 -0 -0 0 0 0 0 0 0 0 0 0 0 0 0 0 0 0 0 0 0 0 0 0 0 0 0
0 0 0 0 0 0 0 0 0 0 0 -0 -0 0 0 0 -0 -0 -0 0 0 0 0 0 0 0 0 0 0 0 0 0 0 0 0 0 0 0 0 0 0 0 0
0 0 0 0 0 0 0 0 0 0 0 0 0 0 0 0 0 -0 0 0 0 0 0 0 0 0 0 0 0 0 0 0 0 0 0 0 0 0 0 0 0 0 0
0 0 0 0 0 0 0 0 0 0 0 0 0 0 0 0 0 0 0 0 0 0 0 0 0 0 0 0 0 0 0 0 0 0 0 0 0 0 0 0 0 0 0
0 0 0 0 0 0 0 0 0 0 0 0 0 0 0 0 0 0 0 0 0 0 0 0 0 0 0 0 0 0 0 0 0 0 0 0 0 0 0 0 0 0 0
0 0 0 0 0 0 0 0 0 0 0 0 0 0 0 0 0 0 0 0 0 0 0 0 0 0 0 0 0 0 0 0 0 0 0 0 0 0 0 0 0 0 0
0 0 0 0 0 0 0 0 0 0 0 0 0 0 0 0 0 0 0 0 0 0 0 0 0 0 0 0 0 0 0 0 0 0 0 0 0 0 0 0 0 0 0
0 0 0 0 0 0 0 0 0 0 0 0 0 0 0 0 0 0 0 0 0 0 0 0 0 0 0 0 0 0 0 0 0 0 0 0 0 0 0 0 0 0 0
0 0 0 0 0 0 0 0 0 0 0 0 0 0 0 0 0 0 0 0 0 0 0 0 0 0 0 0 0 0 0 0 0 0 0 0 0 0 0 0 0 0 0
0 0 0 0 0 0 0 0 0 0 0 0 0 0 0 0 0 0 0 0 0 0 0 0 0 0 0 0 0 0 0 0 0 0 0 0 0 0 0 0 0 0 0
0 0 0 0 0 0 0 0 0 0 0 0 0 0 0 0 0 0 0 0 0 0 0 0 0 0 0 0 0 0 0 0 0 0 0 0 0 0 0 0 0 0 0
0 0 0 0 0 0 0 0 0 0 0 0 0 0 0 0 0 0 0 0 0 0 0 0 0 0 0 0 0 0 0 0 0 0 0 0 0 0 0 0 0 0 0
0 0 0 0 0 0 0 0 0 0 0 0 0 0 0 0 0 0 0 0 0 0 0 0 0 0 0 0 0 0 0 0 0 0 0 0 0 0 0 0 0 0 0
0 0 0 0 0 0 0 0 0 0 0 0 0 0 0 0 0 0 0 0 0 0 0 0 0 0 0 0 0 0 0 0 0 0 0 0 0 0 0 0 0 0 0
0 0 0 0 0 0 0 0 0 0 0 0 0 0 0 0 0 0 0 0 0 0 0 0 0 0 0 0 0 0 0 0 0 0 0 0 0 0 0 0 0 0 0
0 0 0 0 0 0 0 0 0 0 0 0 0 0 0 0 0 0 0 0 0 0 0 0 0 0 0 0 0 0 0 0 0 0 0 0 0 0 0 0 0 0 0
0 0 0 0 0 0 0 0 0 0 0 0 0 0 0 0 0 0 0 0 0 0 0 0 0 0 0 0 0 0 0 0 0 0 0 0 0 0 0 0 0 0 0
0 0 0 0 0 0 0 0 0 0 0 0 0 0 0 0 0 0 0 0 0 0 0 0 0 0 0 0 0 0 0 0 0 0 0 0 0 0 0 0 0 0 0
0 0 0 0 0 0 0 0 0 0 0 0 0 0 0 0 0 0 0 0 0 0 0 0 0 0 0 0 0 0 0 0 0 0 0 0 0 0 0 0 0 0 0
Wind_Speed
15 14 14 14 14 13 10 11 11 10 10 11 12 13 15 16 16 16 17 17 18 16 15 16 16 13 10 9 8 8 7 7 6 5 6 8 12 10 8 6 5 6 6
14 14 13 14 14 14 14 13 12 11 11 11 12 13 14 15 16 18 18 17 18 19 19 17 18 12 15 12 10 11 10 9 7 7 7 8 9 10 9 8 6 5 6
12 12 13 14 14 15 15 14 13 12 11 10 12 13 14 15 16 18 19 19 20 20 20 21 19 17 18 13 14 12 10 9 7 7 7 6 5 7 9 8 8 7 7
11 11 12 13 13 13 14 14 14 13 11 11 11 13 14 15 16 17 18 18 19 19 19 20 20 22 21 18 15 15 12 12 10 9 7 6 6 7 8 7 7 7 6
11 11 11 11 12 12 12 13 13 12 12 11 12 12 14 14 13 16 17 17 18 19 19 20 20 22 23 20 15 16 16 13 12 11 9 8 8 8 9 7 7 5 4
11 11 11 11 11 11 12 13 13 13 12 11 11 12 14 12 17 23 21 17 17 20 20 20 19 20 23 28 28 25 24 20 18 14 12 12 12 10 9 8 7 5 4
10 10 10 10 11 12 13 13 13 13 13 13 12 12 14 17 23 26 26 19 19 19 20 18 16 16 20 21 26 28 26 27 25 18 17 14 13 14 13 11 9 6 4
11 10 10 11 12 13 14 14 14 13 13 13 13 13 14 16 22 25 25 21 21 21 20 19 19 19 20 22 20 20 20 21 22 16 11 10 9 12 12 10 8 6 3
13 13 12 11 12 14 15 16 15 15 15 14 14 14 15 16 20 24 25 15 17 21 19 19 20 20 25 30 22 21 20 18 22 20 12 11 14 16 14 9 9 7 5
15 15 14 13 12 15 16 17 16 15 16 16 16 15 16 17 20 23 24 14 16 16 15 17 19 23 25 32 23 21 21 19 17 17 15 15 14 15 18 12 10 8 5
15 15 15 15 15 17 17 17 17 17 18 18 19 18 17 17 20 24 26 16 15 14 14 14 14 27 29 31 29 19 20 16 16 17 15 13 12 11 12 10 9 8 7
16 17 17 17 17 16 18 18 18 17 18 19 19 19 15 14 16 21 27 27 23 16 14 12 14 24 29 30 27 23 25 20 13 13 13 13 12 11 10 9 9 8 6
18 18 19 20 18 17 18 19 17 16 15 16 16 16 15 12 13 22 25 27 29 20 13 18 20 25 27 25 30 30 22 15 14 14 14 12 11 10 10 9 8 7 5
20 21 20 19 19 18 15 15 15 15 15 15 16 16 15 13 12 10 11 13 18 20 16 16 24 26 23 20 19 23 17 14 13 13 12 11 10 10 9 9 8 7 5
21 20 20 18 18 17 16 15 17 17 18 18 16 16 16 15 14 16 12 10 10 12 11 11 12 13 15 15 14 14 14 13 13 11 11 12 11 10 9 8 7 7 5
19 18 16 15 15 15 16 17 24 27 32 36 35 32 24 27 27 25 23 24 23 21 13 13 14 14 15 15 15 14 14 13 12 11 11 11 11 11 10 8 7 6 5
19 19 16 16 16 16 16 17 17 19 27 32 33 35 35 34 33 29 25 23 24 23 14 13 13 14 14 14 13 13 13 14 13 12 12 12 11 11 10 9 8 6 5
19 19 18 15 15 15 15 16 15 16 16 15 20 27 29 27 26 26 25 20 15 15 12 12 12 12 12 13 13 12 12 13 12 12 12 12 11 11 10 9 7 7 5
18 15 14 15 15 15 15 15 15 16 15 15 14 17 19 20 21 22 20 14 11 11 11 12 11 10 10 11 11 11 11 11 12 11 11 12 10 10 9 8 7 7 5
15 20 19 15 15 15 14 14 14 14 14 13 13 13 10 9 9 10 11 10 10 9 9 10 9 9 10 10 10 10 10 10 12 10 11 10 9 8 9 8 6 6 5
14 15 19 16 14 14 13 13 12 12 12 12 12 13 16 9 8 9 7 6 6 5 8 10 11 11 11 10 10 11 12 10 10 11 10 10 9 7 6 6 6 5 4
13 13 13 13 13 12 12 10 10 10 11 12 11 10 12 7 4 2 3 5 7 7 9 10 10 9 10 10 11 11 11 11 11 11 10 9 8 7 6 6 5 5 5
12 13 13 12 12 13 12 9 7 7 7 7 6 4 4 4 5 6 6 7 8 9 8 9 10 9 9 9 9 10 11 11 10 12 11 10 8 7 6 6 6 5 5
12 12 12 11 11 11 11 11 10 9 9 8 7 7 6 6 7 8 8 8 8 8 8 8 9 13 15 11 8 8 8 10 10 9 12 10 8 7 6 5 5 6 6
11 11 11 10 10 10 10 10 10 10 9 9 8 8 7 8 8 8 8 8 10 10 11 10 9 11 14 14 11 10 13 14 11 8 8 7 7 7 6 5 5 5 6
11 11 10 9 9 9 9 9 10 10 9 9 8 8 8 8 8 8 8 8 9 9 10 9 11 12 13 11 12 12 12 12 11 10 7 6 6 5 6 5 7 7 8
Wind_Direction
8 7 7 7 4 357 341 318 298 281 262 244 233 225 223 221 218 218 219 210 210 211 208 209 210 200 193 190 189 185 185 183 163 158 167 164 179 192 197 214 232 239 232
1 1 4 4 3 1 355 342 324 301 279 259 246 235 229 225 222 222 224 218 211 210 208 208 210 202 203 194 193 192 186 185 173 163 169 173 189 196 199 211 222 236 243
356 357 359 1 0 356 351 346 337 319 296 272 253 244 237 231 228 226 228 225 220 217 210 207 206 200 204 198 196 193 186 179 176 163 162 167 179 187 198 207 219 226 228
349 352 355 354 352 348 344 342 340 331 313 288 263 251 245 238 234 232 231 232 228 224 219 213 207 203 203 197 197 195 184 178 177 174 167 172 175 174 191 197 202 210 213
339 340 343 342 341 339 339 337 334 331 322 304 282 263 252 246 238 234 234 233 232 229 225 220 216 210 207 201 198 193 185 181 180 185 185 179 185 176 193 187 193 197 225
324 323 326 330 332 333 332 330 327 327 324 315 296 276 262 250 243 237 234 233 232 231 229 224 219 212 210 208 207 201 193 186 183 186 192 194 193 185 171 173 173 184 204
307 310 314 320 324 326 324 322 320 320 317 311 300 285 271 261 253 246 238 233 233 233 231 225 219 214 208 209 210 207 206 206 196 191 192 195 185 179 170 174 181 185 181
298 301 306 315 317 319 317 313 312 309 305 301 296 286 276 267 259 253 247 238 236 235 231 228 222 216 209 205 202 203 204 207 205 203 208 195 178 166 166 164 168 185 228
295 298 302 307 309 311 309 307 306 303 298 293 288 282 276 271 262 255 249 244 240 236 232 228 224 220 212 207 202 202 201 204 204 197 200 179 165 160 157 152 160 171 205
298 298 299 298 296 298 298 299 298 295 290 289 283 278 272 269 263 257 250 244 244 239 229 226 224 219 212 207 205 202 201 195 185 183 187 181 175 174 175 174 173 182 185
301 298 294 293 293 292 291 289 289 289 287 284 280 275 268 263 261 254 247 239 242 239 230 222 219 219 214 210 208 208 207 189 183 179 179 181 182 182 183 182 184 190 191
305 298 295 293 291 288 285 284 282 281 280 278 275 272 265 257 250 249 245 241 240 241 232 220 212 210 212 210 211 207 204 187 184 182 180 180 178 176 175 175 179 188 202
303 297 294 292 287 284 281 279 279 275 270 271 270 268 266 258 249 247 245 244 243 242 236 217 205 203 206 208 211 202 196 188 184 183 181 178 174 166 157 157 164 177 202
299 297 296 294 290 286 281 277 273 270 269 269 269 267 267 262 252 242 241 242 244 246 239 213 201 200 202 201 206 202 193 188 186 184 174 162 155 152 153 154 160 167 186
298 296 295 291 288 286 279 272 272 264 263 267 269 271 269 264 257 245 236 235 230 233 210 186 186 189 197 199 198 190 183 177 178 172 159 153 152 150 151 154 156 163 178
297 296 293 290 287 283 281 279 273 271 272 269 266 265 265 262 263 260 250 242 241 236 202 188 189 189 192 193 188 180 174 171 167 160 157 155 154 153 152 154 157 168 181
293 292 289 286 284 282 280 281 282 280 277 276 275 271 265 261 257 253 248 244 241 235 210 197 195 193 192 186 178 171 169 165 161 159 157 155 152 152 152 155 160 167 180
292 289 286 282 280 278 277 277 278 281 283 280 281 281 278 271 267 260 245 234 234 230 206 196 195 194 188 178 170 167 163 160 159 155 152 151 151 150 150 154 159 166 175
292 288 286 283 280 277 275 274 274 274 276 280 282 282 278 277 279 275 251 223 219 222 200 189 189 186 176 165 159 157 156 157 154 149 146 145 144 144 146 150 156 166 181
295 292 292 288 284 280 275 272 271 272 273 275 276 277 279 276 272 271 245 212 208 216 189 173 165 151 142 140 142 145 147 147 145 140 138 137 138 142 147 155 163 171 187
299 297 296 292 287 283 278 272 269 269 271 272 274 278 280 276 270 270 258 201 188 183 155 143 134 130 128 133 138 142 144 144 143 139 136 136 139 142 149 158 165 181 198
304 303 303 301 299 297 293 280 269 267 270 272 277 288 299 303 302 330 37 72 85 95 111 119 121 125 134 139 142 144 145 146 144 138 135 136 141 147 153 161 173 188 204
313 312 313 315 318 321 324 320 306 295 295 304 320 336 2 32 55 66 72 78 87 95 103 112 117 117 117 123 133 142 147 147 143 141 139 142 147 154 160 169 180 195 215
322 323 326 331 337 344 350 354 358 3 8 12 18 26 34 45 57 65 69 74 81 86 92 99 110 121 122 118 115 117 121 125 128 135 140 144 148 152 161 176 195 211 227
333 333 336 341 346 350 354 358 3 7 14 20 25 32 39 48 55 60 65 71 79 85 90 95 104 112 115 113 111 111 119 119 119 122 128 134 146 156 170 190 208 222 234
343 343 344 346 350 354 358 2 6 10 16 22 29 36 43 50 56 61 65 71 78 79 79 81 92 99 103 102 110 116 121 128 130 134 135 144 158 174 185 207 222 233 246